Location: Buckeye Ditch
(40.9104°N, 122.9517°W)
Time: 22:33:24
(UTC+00:00)

Cosmos 1674 - Visible Passes

Search period start: 21 July 2024 00:00
Search period end: 31 July 2024 00:00
Orbit: 430 x 449 km, 82.5° (Epoch: 20 July)

Date Brightness Start Highest point End Pass type
(mag) Time Alt. Az. Time Alt. Az. Time Alt. Az.
21 Jul 2.2 10:52:45 10° NNW 10:56:06 67° W 10:56:21 63° SW visible
22 Jul 3.4 10:14:06 10° N 10:17:19 41° E 10:17:23 41° E visible
23 Jul 4.9 09:36:05 10° NNE 09:38:20 16° ENE 09:38:24 16° ENE visible
23 Jul 4.0 11:09:42 10° NW 11:11:48 21° WNW 11:11:48 21° WNW visible
24 Jul 3.2 10:30:18 10° NNW 10:32:47 43° NW 10:32:47 43° NW visible
25 Jul 4.0 09:51:26 10° N 09:53:44 33° NE 09:53:44 33° NE visible
26 Jul 5.2 09:13:12 10° NNE 09:14:39 16° NE 09:14:39 16° NE visible
26 Jul 4.6 10:46:54 10° NW 10:48:02 16° NW 10:48:02 16° NW visible
27 Jul 4.3 10:07:17 10° NNW 10:08:54 26° NNW 10:08:54 26° NNW visible
28 Jul 4.8 09:28:13 10° N 09:29:45 23° NNE 09:29:45 23° NNE visible
29 Jul 5.4 08:49:47 10° NNE 08:50:33 13° NE 08:50:33 13° NE visible
29 Jul 5.1 10:23:32 10° NW 10:23:56 12° NW 10:23:56 12° NW visible
30 Jul 4.9 09:43:42 10° NNW 09:44:42 18° NNW 09:44:42 18° NNW visible
